Change the Weather History Date:

Saturday, June 22, 2013

  Actual Average Record
Temperature  
Mean Temperature 75 °F 70 °F  
Max Temperature 85 °F 78 °F 97 °F (1983)
Min Temperature 65 °F 62 °F 46 °F (1940)
Degree Days  
Heating Degree Days 0 1  
Month to date heating degree days 24 50  
Since 1 June heating degree days 24 50  
Since 1 July heating degree days 5361 5676  
Cooling Degree Days 10 6  
Month to date cooling degree days 83 84  
Year to date cooling degree days 121 114  
Since 1 June cooling degree days 83 84  
Growing Degree Days 24 (Base 50)    
Moisture  
Dew Point 57 °F    
Average Humidity 53    
Maximum Humidity 68    
Minimum Humidity 37    
Precipitation  
Precipitation 0.00 in 0.10 in 1.82 in (2011)
Month to date precipitation 9.47 2.91  
Year to date precipitation 23.72 21.07  
Sea Level Pressure  
Sea Level Pressure 30.18 in    
Wind  
Wind Speed 12 mph (SW)    
Max Wind Speed 21 mph    
Max Gust Speed 29 mph    
Visibility 10 miles    
Events      
T = Trace of Precipitation, MM = Missing Value Source: NWS Daily Summary

Daily Weather History Graph

Daily Weather History Graph

Search for Another Location

Airport or City:

Trip Planner

Search our weather history database for the weather conditions in past years. The results will help you decide how hot, cold, wet, or windy it might be!

Date:

Astronomy

Jun. 22, 2013 Rise Set
Actual Time 5:07 AM EDT 8:24 PM EDT
Civil Twilight 4:32 AM EDT 8:59 PM EDT
Nautical Twilight 3:47 AM EDT 9:44 PM EDT
Astronomical Twilight 2:52 AM EDT 10:39 PM EDT
Moon 7:34 PM EDT (6/22) 4:18 AM EDT (6/22)
Length of Visible Light 16h 26m
Length of Day
15h 17m
Waxing Gibbous, 99% of the Moon is Illuminated
Jun 22
Waxing Gibbous
Jun 23
Full
Jun 30
Last Quarter
Jul 8
New
Jul 15
First Quarter

Hourly Weather History & Observations

Time (EDT) Temp. Heat Index Dew Point Humidity Pressure Visibility Wind Dir Wind Speed Gust Speed Precip Events Conditions
12:54 AM 69.1 °F - 57.9 °F 68% 30.22 in 10.0 mi SW 6.9 mph - N/A   Scattered Clouds
1:54 AM 66.9 °F - 55.9 °F 68% 30.22 in 10.0 mi SW 12.7 mph - N/A   Scattered Clouds
2:54 AM 66.9 °F - 55.9 °F 68% 30.22 in 10.0 mi SW 10.4 mph - N/A   Scattered Clouds
3:54 AM 66.0 °F - 55.0 °F 68% 30.21 in 10.0 mi SW 11.5 mph - N/A   Clear
4:54 AM 64.9 °F - 54.0 °F 68% 30.22 in 10.0 mi SW 9.2 mph - N/A   Scattered Clouds
5:54 AM 66.0 °F - 54.0 °F 65% 30.22 in 10.0 mi SW 10.4 mph - N/A   Mostly Cloudy
6:54 AM 66.9 °F - 54.0 °F 63% 30.21 in 10.0 mi SW 11.5 mph - N/A   Clear
7:54 AM 70.0 °F - 55.0 °F 59% 30.21 in 10.0 mi SW 11.5 mph - N/A   Scattered Clouds
8:54 AM 73.0 °F - 55.9 °F 55% 30.20 in 10.0 mi WSW 9.2 mph - N/A   Scattered Clouds
9:54 AM 75.9 °F - 57.9 °F 54% 30.20 in 10.0 mi SW 11.5 mph - N/A   Scattered Clouds
10:54 AM 79.0 °F - 59.0 °F 50% 30.21 in 10.0 mi WSW 11.5 mph - N/A   Mostly Cloudy
11:54 AM 81.0 °F 81.3 °F 59.0 °F 47% 30.21 in 10.0 mi West 16.1 mph 23.0 mph N/A   Overcast
12:54 PM 82.9 °F 82.8 °F 59.0 °F 44% 30.20 in 10.0 mi SW 17.3 mph 21.9 mph N/A   Overcast
1:54 PM 84.0 °F 83.5 °F 57.9 °F 41% 30.18 in 10.0 mi West 13.8 mph 23.0 mph N/A   Overcast
2:54 PM 84.0 °F 83.3 °F 57.0 °F 40% 30.17 in 10.0 mi SW 16.1 mph - N/A   Overcast
3:54 PM 84.0 °F 83.3 °F 57.0 °F 40% 30.14 in 10.0 mi SW 11.5 mph 21.9 mph N/A   Overcast
4:54 PM 84.0 °F 83.0 °F 55.9 °F 38% 30.13 in 10.0 mi SW 12.7 mph 23.0 mph N/A   Mostly Cloudy
5:54 PM 82.0 °F 81.7 °F 57.0 °F 42% 30.12 in 10.0 mi SSW 12.7 mph - N/A   Mostly Cloudy
6:54 PM 78.1 °F - 60.1 °F 54% 30.12 in 10.0 mi SSW 16.1 mph - N/A   Mostly Cloudy
7:54 PM 72.0 °F - 57.0 °F 59% 30.13 in 10.0 mi South 13.8 mph - N/A   Overcast
8:54 PM 70.0 °F - 55.9 °F 61% 30.14 in 10.0 mi SSW 12.7 mph - N/A   Mostly Cloudy
9:54 PM 69.1 °F - 55.9 °F 63% 30.16 in 10.0 mi SSW 10.4 mph - N/A   Scattered Clouds
10:54 PM 68.0 °F - 55.9 °F 65% 30.16 in 10.0 mi SSW 11.5 mph - N/A   Mostly Cloudy
11:54 PM 68.0 °F - 55.9 °F 65% 30.17 in 10.0 mi SW 9.2 mph - N/A   Mostly Cloudy